Maple Lake, MN

1:28 PM CDT on March 24, 2017 (GMT -0500)
Maple Lake Municipal

Weather History for KMGG - March, 2014

Change the Weather History Date:

Saturday, March 1, 2014

  Actual Average (KSTC) Record (KSTC)
Temperature  
Mean Temperature -4 °F -  
Max Temperature 1 °F 33 °F 59 °F (1992)
Min Temperature -10 °F 11 °F -32 °F (1962)
Degree Days  
Heating Degree Days 70    
Moisture  
Dew Point -16 °F    
Average Humidity 57    
Maximum Humidity 73    
Minimum Humidity 46    
Precipitation  
Precipitation 0.00 in - - ()
Sea Level Pressure  
Sea Level Pressure 30.41 in    
Wind  
Wind Speed 11 mph (NW)    
Max Wind Speed 14 mph    
Max Gust Speed 21 mph    
Visibility 10 miles    
Events      
Averages and records for this station are not official NWS values.
T = Trace of Precipitation, MM = Missing Value Source: NWS Daily Summary

Daily Weather History Graph

Daily Weather History Graph

Search for Another Location

Airport or City:

Trip Planner

Search our weather history database for the weather conditions in past years. The results will help you decide how hot, cold, wet, or windy it might be!

Date:

Astronomy

Mar. 01, 2014 Rise Set
Actual Time 6:53 AM CST 6:03 PM CST
Civil Twilight 6:24 AM CST 6:32 PM CST
Nautical Twilight 5:50 AM CST 7:07 PM CST
Astronomical Twilight 5:16 AM CST 7:41 PM CST
Moon 6:45 AM CST (3/1) 6:55 PM CST (3/1)
Length of Visible Light 12h 08m
Length of Day
11h 09m
New Moon, 0% of the Moon is Illuminated
Mar 1
New Moon
Mar 8
First Quarter
Mar 16
Full
Mar 23
Last Quarter
Mar 30
New

Hourly Weather History & Observations

Time (CST) Temp. Windchill Dew Point Humidity Pressure Visibility Wind Dir Wind Speed Gust Speed Precip Events Conditions
12:16 AM 1.8 °F -16.4 °F -5.8 °F 71% 30.19 in 10.0 mi NW 13.8 mph - N/A   Mostly Cloudy
12:37 AM 1.0 °F -16.6 °F -6.2 °F 72% 30.20 in 10.0 mi NNW 12.7 mph 19.6 mph N/A   Overcast
12:57 AM 0.9 °F -16.8 °F -6.3 °F 72% 30.22 in 10.0 mi NNW 12.7 mph 20.7 mph N/A   Overcast
1:17 AM -0.0 °F -18.0 °F -7.4 °F 71% 30.23 in 10.0 mi NW 12.7 mph 18.4 mph N/A   Mostly Cloudy
1:36 AM -0.6 °F -16.0 °F -7.6 °F 72% 30.24 in 10.0 mi NNW 9.2 mph 17.3 mph N/A   Clear
1:57 AM -0.9 °F -17.4 °F -8.0 °F 72% 30.26 in 10.0 mi NW 10.4 mph - N/A   Scattered Clouds
2:17 AM -1.3 °F -20.3 °F -8.3 °F 72% 30.26 in 10.0 mi NNW 13.8 mph - N/A   Overcast
2:36 AM -1.8 °F -19.4 °F -8.7 °F 73% 30.27 in 10.0 mi NNW 11.5 mph - N/A   Overcast
2:57 AM -2.4 °F -20.9 °F -9.4 °F 72% 30.27 in 10.0 mi NW 12.7 mph 16.1 mph N/A   Scattered Clouds
3:16 AM -2.7 °F -20.5 °F -9.6 °F 73% 30.28 in 10.0 mi NW 11.5 mph 18.4 mph N/A   Scattered Clouds
3:37 AM -3.1 °F -21.8 °F -9.9 °F 73% 30.27 in 10.0 mi NNW 12.7 mph - N/A   Mostly Cloudy
3:56 AM -3.5 °F -20.5 °F -10.3 °F 73% 30.27 in 10.0 mi NNW 10.4 mph - N/A   Scattered Clouds
4:17 AM -3.5 °F -20.5 °F -10.3 °F 73% 30.29 in 10.0 mi NW 10.4 mph - N/A   Mostly Cloudy
4:37 AM -3.8 °F -21.0 °F -11.0 °F 71% 30.31 in 10.0 mi NW 10.4 mph - N/A   Mostly Cloudy
4:57 AM -4.0 °F -20.2 °F -11.2 °F 71% 30.32 in 10.0 mi NW 9.2 mph - N/A   Scattered Clouds
5:16 AM -4.0 °F -21.2 °F -11.7 °F 69% 30.33 in 10.0 mi NW 10.4 mph - N/A   Mostly Cloudy
5:37 AM -4.4 °F -21.6 °F -12.6 °F 68% 30.34 in 10.0 mi NW 10.4 mph 16.1 mph N/A   Scattered Clouds
5:57 AM -4.7 °F -23.9 °F -13.2 °F 67% 30.34 in 10.0 mi NW 12.7 mph 16.1 mph N/A   Scattered Clouds
6:17 AM -4.9 °F -22.3 °F -13.5 °F 66% 30.36 in 10.0 mi NW 10.4 mph - N/A   Scattered Clouds
6:36 AM -5.1 °F -23.5 °F -14.8 °F 63% 30.37 in 10.0 mi NW 11.5 mph 17.3 mph N/A   Mostly Cloudy
6:57 AM -5.3 °F -22.8 °F -15.3 °F 62% 30.37 in 10.0 mi NW 10.4 mph - N/A   Overcast
7:17 AM -5.8 °F -22.4 °F -15.9 °F 62% 30.37 in 10.0 mi NW 9.2 mph - N/A   Overcast
7:37 AM -5.8 °F -21.2 °F -16.4 °F 60% 30.38 in 10.0 mi NW 8.1 mph - N/A   Overcast
7:56 AM -5.6 °F -23.2 °F -16.8 °F 59% 30.38 in 10.0 mi NW 10.4 mph - N/A   Scattered Clouds
8:17 AM -5.3 °F -22.8 °F -17.5 °F 56% 30.40 in 10.0 mi NNW 10.4 mph - N/A   Scattered Clouds
8:37 AM -5.1 °F -25.1 °F -17.9 °F 54% 30.41 in 10.0 mi NW 13.8 mph - N/A   Mostly Cloudy
8:57 AM -4.9 °F -21.3 °F -18.0 °F 53% 30.41 in 10.0 mi NW 9.2 mph 17.3 mph N/A   Overcast
9:16 AM -4.9 °F -24.1 °F -18.2 °F 53% 30.41 in 10.0 mi NW 12.7 mph - N/A   Overcast
9:37 AM -4.0 °F -20.2 °F -17.7 °F 52% 30.40 in 10.0 mi NNW 9.2 mph - N/A   Overcast
9:57 AM -4.4 °F -19.5 °F -18.6 °F 51% 30.44 in 10.0 mi NW 8.1 mph - N/A   Mostly Cloudy
10:17 AM -4.0 °F -21.2 °F -18.6 °F 50% 30.45 in 10.0 mi NW 10.4 mph - N/A   Mostly Cloudy
10:37 AM -3.8 °F -19.9 °F -18.6 °F 49% 30.44 in 10.0 mi NW 9.2 mph - N/A   Mostly Cloudy
10:57 AM -3.3 °F -20.3 °F -18.6 °F 48% 30.46 in 10.0 mi NW 10.4 mph - N/A   Mostly Cloudy
11:16 AM -3.1 °F -21.0 °F -18.4 °F 48% 30.45 in 10.0 mi NW 11.5 mph - N/A   Clear
11:37 AM -2.9 °F -21.6 °F -18.2 °F 48% 30.47 in 10.0 mi WNW 12.7 mph - N/A   Clear
11:56 AM -2.2 °F -20.7 °F -18.2 °F 47% 30.47 in 10.0 mi NW 12.7 mph - N/A   Clear
12:17 PM -1.8 °F -20.2 °F -18.0 °F 46% 30.47 in 10.0 mi NNW 12.7 mph - N/A   Clear
12:37 PM -1.8 °F -20.2 °F -17.9 °F 47% 30.46 in 10.0 mi NW 12.7 mph - N/A   Clear
12:56 PM -1.7 °F -20.8 °F -17.9 °F 46% 30.45 in 10.0 mi NNW 13.8 mph 18.4 mph N/A   Clear
1:17 PM -1.3 °F -17.8 °F -17.1 °F 47% 30.45 in 10.0 mi NW 10.4 mph 16.1 mph N/A   Clear
1:36 PM -1.3 °F -19.6 °F -17.5 °F 46% 30.45 in 10.0 mi NW 12.7 mph - N/A   Clear
1:57 PM -1.3 °F -18.7 °F -16.2 °F 49% 30.44 in 10.0 mi NW 11.5 mph 16.1 mph N/A   Clear
2:16 PM -1.5 °F -19.0 °F -16.6 °F 49% 30.43 in 10.0 mi NNW 11.5 mph 16.1 mph N/A   Clear
2:37 PM -2.0 °F -18.7 °F -17.0 °F 49% 30.43 in 10.0 mi NW 10.4 mph - N/A   Clear
2:57 PM -1.7 °F -20.0 °F -16.4 °F 50% 30.44 in 10.0 mi NNW 12.7 mph - N/A   Scattered Clouds
3:17 PM -2.2 °F -19.9 °F -17.5 °F 48% 30.46 in 10.0 mi WNW 11.5 mph - N/A   Mostly Cloudy
3:36 PM -2.2 °F -18.9 °F -17.0 °F 50% 30.45 in 10.0 mi NW 10.4 mph - N/A   Scattered Clouds
3:57 PM -2.2 °F -18.9 °F -17.9 °F 47% 30.45 in 10.0 mi NNW 10.4 mph - N/A   Scattered Clouds
4:17 PM -2.4 °F -18.2 °F -17.5 °F 49% 30.45 in 10.0 mi WNW 9.2 mph - N/A   Mostly Cloudy
4:37 PM -2.4 °F -18.2 °F -18.2 °F 47% 30.45 in 10.0 mi NW 9.2 mph - N/A   Mostly Cloudy
4:56 PM -2.4 °F -19.2 °F -17.7 °F 48% 30.45 in 10.0 mi NW 10.4 mph - N/A   Clear
5:17 PM -2.9 °F -17.7 °F -18.0 °F 49% 30.46 in 10.0 mi NW 8.1 mph - N/A   Scattered Clouds
5:36 PM -3.1 °F -21.0 °F -18.0 °F 49% 30.45 in 10.0 mi NW 11.5 mph - N/A   Overcast
5:57 PM -3.3 °F -20.3 °F -17.9 °F 50% 30.48 in 10.0 mi WNW 10.4 mph - N/A   Mostly Cloudy
6:16 PM -3.5 °F -18.4 °F -18.0 °F 50% 30.48 in 10.0 mi WNW 8.1 mph - N/A   Scattered Clouds
6:37 PM -4.0 °F -22.1 °F -18.0 °F 51% 30.49 in 10.0 mi WNW 11.5 mph 16.1 mph N/A   Mostly Cloudy
6:57 PM -4.0 °F -22.1 °F -17.9 °F 52% 30.49 in 10.0 mi WNW 11.5 mph 16.1 mph N/A   Scattered Clouds
7:16 PM -4.4 °F -21.6 °F -18.0 °F 52% 30.50 in 10.0 mi WNW 10.4 mph - N/A   Scattered Clouds
7:37 PM -4.5 °F -23.6 °F -18.4 °F 51% 30.50 in 10.0 mi WNW 12.7 mph - N/A   Overcast
7:56 PM -4.9 °F -22.3 °F -18.4 °F 52% 30.49 in 10.0 mi NW 10.4 mph - N/A   Overcast
8:17 PM -5.3 °F -21.7 °F -18.4 °F 53% 30.49 in 10.0 mi NW 9.2 mph - N/A   Mostly Cloudy
8:37 PM -5.8 °F -25.2 °F -18.8 °F 54% 30.48 in 10.0 mi NW 12.7 mph - N/A   Overcast
8:57 PM -6.2 °F -24.8 °F -18.9 °F 54% 30.50 in 10.0 mi NW 11.5 mph - N/A   Mostly Cloudy
9:17 PM -6.9 °F -26.6 °F -18.9 °F 56% 30.49 in 10.0 mi NNW 12.7 mph - N/A   Mostly Cloudy
9:37 PM -7.2 °F -25.2 °F -19.3 °F 56% 30.49 in 10.0 mi NNW 10.4 mph - N/A   Mostly Cloudy
9:56 PM -7.8 °F -26.8 °F -19.3 °F 57% 30.52 in 10.0 mi NW 11.5 mph - N/A   Scattered Clouds
10:17 PM -8.1 °F -26.3 °F -19.3 °F 58% 30.52 in 10.0 mi NW 10.4 mph - N/A   Clear
10:37 PM -8.7 °F -23.4 °F -19.5 °F 59% 30.52 in 10.0 mi NW 6.9 mph - N/A   Clear
10:57 PM -9.4 °F -27.9 °F -20.0 °F 60% 30.51 in 10.0 mi NW 10.4 mph - N/A   Clear
11:17 PM -9.8 °F -28.3 °F -20.2 °F 60% 30.51 in 10.0 mi NW 10.4 mph - N/A   Clear
11:37 PM -10.1 °F -27.7 °F -20.7 °F 60% 30.52 in 10.0 mi NW 9.2 mph - N/A   Clear
11:56 PM -10.3 °F -30.0 °F -21.1 °F 59% 30.53 in 10.0 mi NW 11.5 mph - N/A   Clear